Tracking 29892 objects as of 21-Nov-2024
HD Live streaming from Space Station
objects crossing your sky now

ASIASAT 3S

Track ASIASAT 3S now!
ASIASAT 3S is classified as:


NORAD ID: 25657
Int'l Code: 1999-013A
Perigee: 36,184.1 km
Apogee: 36,196.4 km
Inclination: 8.5 °
Period: 1,456.4 minutes
Semi major axis: 42561 km
RCS: 25.1486 m2 (large)
Launch date: March 21, 1999
Source: Asia Satellite Telecommunications Company (ASIASAT) (AC)
Launch site: TYURATAM MISSILE AND SPACE COMPLEX (TTMTR)

28 C-band, 16 Ku-band; broadcasting, internet services, multimedia, telecommunications
Your satellite tracking list
Your tracking list is empty




NASA's NSSDC Master Catalog

Two Line Element Set (TLE):
1 25657U 99013A   24325.98105038 -.00000055  00000-0  00000+0 0  9997
2 25657   8.4806  60.3274 0001446 134.4338 244.5229  0.98873966 93912
Source of the keplerian elements: AFSPC